Hourly Data Report for October 16, 2016

All times are specified in Local Standard Time (LST). Add 1 hour to adjust for Daylight Saving Time where and when it is observed.

KUGAARUK CLIMATE
NUNAVUT

68°32'15.060" N
89°47'47.020" W
15.80 m
2303094
71407
NBB

Download Data

Hourly Data (October 2016)
Hourly Data Report for October 16, 2016
Temp Definition
°C
Dew Point Temp Definition
°C
Rel Hum Definition
%
Wind Dir Definition
10's deg

Wind Spd Definition
km/h
Visibility Definition
km
Stn Press Definition
kPa
Hmdx Definition


Wind Chill Definition


Weather Definition


TIME
00:00 -7.9 -9.9 85 24 40   100.82   -18 LegendNANA
01:00 -7.8 -10.0 84 24 41   100.82   -18 LegendNANA
02:00 -7.6 -10.3 82 23 38   100.82   -17 LegendNANA
03:00 -7.4 -9.5 85 23 44   100.81   -18 LegendNANA
04:00 -7.2 -9.3 85 23 40   100.84   -17 LegendNANA
05:00 -7.0 -9.3 84 23 40   100.83   -17 LegendNANA
06:00 -6.9 -9.4 82 23 40   100.80   -17 LegendNANA
07:00 -6.8 -9.3 82 23 39   100.81   -16 LegendNANA
08:00 -6.6 -9.0 83 23 41   100.86   -16 LegendNANA
09:00 -6.5 -8.9 83 23 36   100.89   -16 LegendNANA
10:00 -6.0 -8.4 83 23 35   100.92   -15 LegendNANA
11:00 -5.8 -8.2 83 24 39   100.92   -15 LegendNANA
12:00 -5.6 -7.9 84 24 35   100.95   -14 LegendNANA
13:00 -6.3 -9.5 78 30 21   101.01   -13 LegendNANA
14:00 -7.0 -10.3 77 28 21   101.06   -14 LegendNANA
15:00 -7.5 -10.8 77 28 24   101.11   -15 LegendNANA
16:00 -7.8 -10.8 79 27 19   101.17   -15 LegendNANA
17:00 -8.0 -11.2 78 27 27   101.18   -16 LegendNANA
18:00 -8.1 -10.9 80 27 25   101.22   -16 LegendNANA
19:00 -8.2 -11.0 80 28 24   101.24   -16 LegendNANA
20:00 -8.4 -11.2 80 29 27   101.29   -17 LegendNANA
21:00 -8.6 -12.0 77 27 29   101.35   -18 LegendNANA
22:00 -8.3 -11.3 79 27 29   101.38   -17 LegendNANA
23:00 -8.4 -11.6 78 28 26   101.43   -17 LegendNANA

Notes on Data Quality.

Legend

  • E = Estimated
  • M = Missing
  • NA = Not Available
  • ‡ = Partner data that is not subject to review by the National Climate Archives
Date modified: